When you browse on this site, cookies collect data to enhance your experience and personalize the content and advertising you see.
Visit our Privacy Policy to learn more. By continuing to use the site, you agree to this use of cookies and data.

Stündliche Wetter Ryasino

Heute, 3 August, Montag

Zeit Temperatur Niederschläge Wind Luftdruck Luftfeuchtigkeit
00:00 +10°C° 0 mm 0 m/S 738 mmHg 87%
01:00 +11°C° 0 mm 1 m/S 738 mmHg 87%
02:00 +11°C° 0 mm 1 m/S 739 mmHg 88%
03:00 +11°C° 0 mm 1 m/S 739 mmHg 88%
04:00 +11°C° 0 mm 1 m/S 739 mmHg 89%
05:00 +11°C° 0 mm 1 m/S 739 mmHg 90%
06:00 +13°C° 0 mm 2 m/S 739 mmHg 85%
07:00 +15°C° 0 mm 2 m/S 739 mmHg 81%
08:00 +17°C° 0 mm 3 m/S 739 mmHg 77%
09:00 +18°C° 0 mm 3 m/S 739 mmHg 74%
10:00 +19°C° 0 mm 3 m/S 739 mmHg 71%
11:00 +20°C° 0 mm 4 m/S 739 mmHg 67%
12:00 +21°C° 0 mm 4 m/S 739 mmHg 66%
13:00 +21°C° 0 mm 4 m/S 739 mmHg 65%
14:00 +22°C° 0 mm 4 m/S 739 mmHg 64%
15:00 +21°C° 0 mm 4 m/S 739 mmHg 67%
16:00 +21°C° 0 mm 3 m/S 739 mmHg 71%
17:00 +21°C° 0 mm 3 m/S 738 mmHg 75%
18:00 +19°C° 0 mm 3 m/S 738 mmHg 80%
19:00 +18°C° 0 mm 3 m/S 738 mmHg 86%
20:00 +17°C° 0 mm 2 m/S 738 mmHg 92%
21:00 +16°C° 0 mm 2 m/S 739 mmHg 92%
22:00 +15°C° 0 mm 2 m/S 739 mmHg 93%
23:00 +14°C° 0 mm 3 m/S 739 mmHg 94%

Morgen, 4 August, Dienstag

Zeit Temperatur Niederschläge Wind Luftdruck Luftfeuchtigkeit
00:00 +13°C° 0 mm 3 m/S 739 mmHg 94%
01:00 +14°C° 0 mm 2 m/S 739 mmHg 94%
02:00 +13°C° 0 mm 2 m/S 739 mmHg 95%
03:00 +13°C° 0 mm 2 m/S 739 mmHg 94%
04:00 +12°C° 0 mm 3 m/S 739 mmHg 94%
05:00 +12°C° 0 mm 3 m/S 739 mmHg 93%
06:00 +14°C° 0 mm 3 m/S 740 mmHg 89%
07:00 +16°C° 0 mm 3 m/S 740 mmHg 84%
08:00 +18°C° 0 mm 4 m/S 740 mmHg 80%
09:00 +19°C° 0 mm 4 m/S 740 mmHg 75%
10:00 +20°C° 0 mm 4 m/S 740 mmHg 71%
11:00 +22°C° 0 mm 5 m/S 740 mmHg 66%
12:00 +22°C° 0 mm 5 m/S 740 mmHg 65%
13:00 +23°C° 0 mm 5 m/S 740 mmHg 64%
14:00 +23°C° 0 mm 5 m/S 740 mmHg 63%
15:00 +23°C° 0 mm 5 m/S 740 mmHg 66%
16:00 +23°C° 0 mm 4 m/S 740 mmHg 69%
17:00 +23°C° 0 mm 4 m/S 740 mmHg 72%
18:00 +21°C° 0 mm 4 m/S 740 mmHg 77%
19:00 +20°C° 0 mm 3 m/S 740 mmHg 81%
20:00 +18°C° 0 mm 3 m/S 740 mmHg 85%
21:00 +18°C° 0 mm 3 m/S 740 mmHg 86%
22:00 +17°C° 0 mm 3 m/S 740 mmHg 87%
23:00 +17°C° 0 mm 3 m/S 740 mmHg 87%

übermorgen, 5 August, Mittwoch

Zeit Temperatur Niederschläge Wind Luftdruck Luftfeuchtigkeit
00:00 +17°C° 0 mm 3 m/S 740 mmHg 88%
01:00 +16°C° 0 mm 3 m/S 740 mmHg 88%
02:00 +15°C° 0 mm 4 m/S 740 mmHg 88%
03:00 +15°C° 0 mm 4 m/S 740 mmHg 87%
04:00 +15°C° 0 mm 4 m/S 740 mmHg 87%
05:00 +15°C° 0 mm 4 m/S 740 mmHg 86%
06:00 +17°C° 0 mm 4 m/S 740 mmHg 83%
07:00 +18°C° 0 mm 4 m/S 741 mmHg 81%
08:00 +19°C° 0 mm 4 m/S 741 mmHg 78%
09:00 +21°C° 0 mm 4 m/S 741 mmHg 75%
10:00 +22°C° 0 mm 4 m/S 741 mmHg 71%
11:00 +25°C° 0 mm 4 m/S 742 mmHg 68%
12:00 +25°C° 0 mm 4 m/S 742 mmHg 66%
13:00 +26°C° 0 mm 4 m/S 742 mmHg 64%
14:00 +27°C° 0 mm 4 m/S 742 mmHg 62%
15:00 +26°C° 0 mm 3 m/S 742 mmHg 65%
16:00 +26°C° 0 mm 3 m/S 742 mmHg 69%
17:00 +26°C° 0 mm 2 m/S 742 mmHg 72%
18:00 +24°C° 0 mm 2 m/S 742 mmHg 77%
19:00 +23°C° 0 mm 2 m/S 743 mmHg 81%
20:00 +20°C° 0 mm 2 m/S 743 mmHg 85%
21:00 +19°C° 0 mm 2 m/S 743 mmHg 87%
22:00 +19°C° 0 mm 2 m/S 743 mmHg 88%
23:00 +18°C° 0 mm 2 m/S 743 mmHg 90%

6 August, Donnerstag

Zeit Temperatur Niederschläge Wind Luftdruck Luftfeuchtigkeit
00:00 +18°C° 0 mm 2 m/S 743 mmHg 90%
01:00 +17°C° 0 mm 2 m/S 743 mmHg 91%
02:00 +18°C° 0 mm 1 m/S 743 mmHg 91%
03:00 +18°C° 0.1 mm 1 m/S 743 mmHg 92%
04:00 +18°C° 0.1 mm 1 m/S 744 mmHg 92%
05:00 +18°C° 0.1 mm 1 m/S 744 mmHg 93%
06:00 +19°C° 0.1 mm 1 m/S 744 mmHg 91%
07:00 +20°C° 0.1 mm 1 m/S 744 mmHg 89%
08:00 +20°C° 0.1 mm 2 m/S 744 mmHg 87%
09:00 +21°C° 0 mm 2 m/S 745 mmHg 85%
10:00 +23°C° 0 mm 2 m/S 745 mmHg 83%
11:00 +23°C° 0 mm 2 m/S 745 mmHg 81%
12:00 +24°C° 0.2 mm 2 m/S 745 mmHg 78%
13:00 +25°C° 0.2 mm 3 m/S 745 mmHg 74%
14:00 +25°C° 0.2 mm 3 m/S 745 mmHg 71%
15:00 +25°C° 0.1 mm 3 m/S 745 mmHg 71%
16:00 +25°C° 0.1 mm 3 m/S 745 mmHg 72%
17:00 +25°C° 0.1 mm 3 m/S 745 mmHg 72%
18:00 +22°C° 0 mm 3 m/S 745 mmHg 75%
19:00 +20°C° 0 mm 3 m/S 745 mmHg 78%
20:00 +18°C° 0 mm 3 m/S 745 mmHg 82%
21:00 +17°C° 0 mm 3 m/S 745 mmHg 82%
22:00 +16°C° 0 mm 3 m/S 746 mmHg 82%
23:00 +16°C° 0 mm 3 m/S 746 mmHg 82%

7 August, Freitag

Zeit Temperatur Niederschläge Wind Luftdruck Luftfeuchtigkeit
00:00 +14°C° 0 mm 3 m/S 746 mmHg 83%
01:00 +14°C° 0 mm 3 m/S 746 mmHg 85%
02:00 +14°C° 0 mm 2 m/S 746 mmHg 87%
03:00 +14°C° 0 mm 2 m/S 746 mmHg 86%
04:00 +14°C° 0 mm 2 m/S 746 mmHg 85%
05:00 +13°C° 0 mm 2 m/S 746 mmHg 84%
06:00 +14°C° 0 mm 3 m/S 747 mmHg 81%
07:00 +16°C° 0 mm 3 m/S 747 mmHg 77%
08:00 +18°C° 0 mm 3 m/S 747 mmHg 73%
09:00 +19°C° 0 mm 3 m/S 747 mmHg 68%
10:00 +21°C° 0 mm 3 m/S 747 mmHg 64%
11:00 +22°C° 0 mm 4 m/S 747 mmHg 59%
12:00 +23°C° 0 mm 4 m/S 747 mmHg 58%
13:00 +23°C° 0 mm 4 m/S 747 mmHg 57%
14:00 +25°C° 0 mm 4 m/S 747 mmHg 55%
15:00 +25°C° 0 mm 3 m/S 746 mmHg 59%
16:00 +24°C° 0 mm 3 m/S 746 mmHg 63%
17:00 +24°C° 0 mm 3 m/S 746 mmHg 67%
18:00 +21°C° 0 mm 2 m/S 746 mmHg 72%
19:00 +19°C° 0 mm 2 m/S 746 mmHg 77%
20:00 +17°C° 0 mm 2 m/S 746 mmHg 82%
21:00 +17°C° 0 mm 2 m/S 746 mmHg 84%
22:00 +16°C° 0 mm 2 m/S 746 mmHg 86%
23:00 +16°C° 0 mm 2 m/S 746 mmHg 88%

8 August, Samstag

Zeit Temperatur Niederschläge Wind Luftdruck Luftfeuchtigkeit
00:00 +16°C° 0 mm 2 m/S 746 mmHg 88%
01:00 +15°C° 0 mm 2 m/S 746 mmHg 89%
02:00 +15°C° 0 mm 2 m/S 746 mmHg 89%
03:00 +15°C° 0 mm 2 m/S 746 mmHg 89%
04:00 +15°C° 0 mm 2 m/S 746 mmHg 90%
05:00 +15°C° 0 mm 2 m/S 746 mmHg 90%
06:00 +16°C° 0 mm 2 m/S 746 mmHg 85%
07:00 +17°C° 0 mm 2 m/S 746 mmHg 81%
08:00 +19°C° 0 mm 3 m/S 746 mmHg 76%
09:00 +20°C° 0 mm 3 m/S 746 mmHg 70%
10:00 +21°C° 0 mm 3 m/S 746 mmHg 65%
11:00 +24°C° 0 mm 3 m/S 746 mmHg 59%
12:00 +24°C° 0.1 mm 3 m/S 745 mmHg 58%
13:00 +24°C° 0.1 mm 3 m/S 745 mmHg 57%
14:00 +25°C° 0.1 mm 3 m/S 745 mmHg 56%
15:00 +24°C° 0 mm 3 m/S 744 mmHg 60%
16:00 +24°C° 0 mm 2 m/S 744 mmHg 65%
17:00 +23°C° 0 mm 2 m/S 744 mmHg 69%
18:00 +21°C° 0 mm 2 m/S 744 mmHg 74%
19:00 +19°C° 0 mm 2 m/S 744 mmHg 78%
20:00 +17°C° 0 mm 2 m/S 744 mmHg 83%
21:00 +16°C° 0 mm 2 m/S 743 mmHg 85%
22:00 +16°C° 0 mm 2 m/S 743 mmHg 87%
23:00 +15°C° 0 mm 2 m/S 743 mmHg 89%
Mehr zeigen